Change the Weather History Date:

Wednesday, March 20, 2013

  Actual Average Record
Temperature  
Mean Temperature 7 °F -  
Max Temperature 21 °F 22 °F 46 °F (1998)
Min Temperature -7 °F 5 °F -27 °F (2012)
Degree Days  
Heating Degree Days 58    
Moisture  
Dew Point 6 °F    
Average Humidity 82    
Maximum Humidity 100    
Minimum Humidity 52    
Precipitation  
Precipitation 0.00 in - - ()
Sea Level Pressure  
Sea Level Pressure 30.16 in    
Wind  
Wind Speed 5 mph (WSW)    
Max Wind Speed 13 mph    
Max Gust Speed 20 mph    
Visibility 6 miles    
Events      
Averages and records for this station are not official NWS values.
T = Trace of Precipitation, MM = Missing Value Source: NWS Daily Summary

Daily Weather History Graph

Daily Weather History Graph

Search for Another Location

Airport or City:

Trip Planner

Search our weather history database for the weather conditions in past years. The results will help you decide how hot, cold, wet, or windy it might be!

Date:

Astronomy

Mar. 20, 2013 Rise Set
Actual Time 8:37 AM AKDT 8:54 PM AKDT
Civil Twilight 7:54 AM AKDT 9:38 PM AKDT
Nautical Twilight 7:01 AM AKDT 10:31 PM AKDT
Astronomical Twilight 6:03 AM AKDT 11:30 PM AKDT
Moon 1:05 PM AKDT (3/20) 6:02 AM AKDT (3/20)
Length of Visible Light 13h 44m
Length of Day
12h 16m
First Quarter, 60% of the Moon is Illuminated
Mar 20
First Quarter
Mar 27
Full
Apr 2
Last Quarter
Apr 10
New
Apr 18
First Quarter

Hourly Weather History & Observations

Time (AKDT) Temp. Windchill Dew Point Humidity Pressure Visibility Wind Dir Wind Speed Gust Speed Precip Events Conditions
12:16 AM 3.2 °F -4.2 °F -2.2 °F 78% 30.31 in 10.0 mi West 3.5 mph - N/A   Clear
12:36 AM 1.4 °F -6.2 °F -2.2 °F 85% 30.31 in 10.0 mi West 3.5 mph - N/A   Clear
12:56 AM 1.4 °F -6.2 °F -2.2 °F 85% 30.31 in 10.0 mi West 3.5 mph - N/A   Clear
1:16 AM 1.4 °F -11.3 °F -2.2 °F 85% 30.31 in 10.0 mi WNW 6.9 mph - N/A   Clear
1:36 AM 1.4 °F -9.9 °F -0.4 °F 92% 30.31 in 10.0 mi West 5.8 mph - N/A   Clear
1:56 AM 1.4 °F -11.3 °F -4.0 °F 78% 30.32 in 10.0 mi West 6.9 mph - N/A   Clear
2:16 AM 1.4 °F -6.2 °F 1.4 °F 100% 30.30 in 10.0 mi West 3.5 mph - N/A   Clear
2:36 AM 1.4 °F - -4.0 °F 78% 30.30 in 10.0 mi Calm Calm - N/A   Clear
2:56 AM 1.4 °F -6.2 °F -2.2 °F 85% 30.30 in 10.0 mi West 3.5 mph - N/A   Clear
3:16 AM 1.4 °F -8.3 °F -2.2 °F 85% 30.29 in 10.0 mi West 4.6 mph - N/A   Clear
3:36 AM -0.4 °F -10.4 °F -2.2 °F 92% 30.29 in 10.0 mi WNW 4.6 mph - N/A   Clear
3:56 AM 1.4 °F -8.3 °F -0.4 °F 92% 30.28 in 10.0 mi West 4.6 mph - N/A   Clear
4:16 AM -0.4 °F -12.0 °F -5.8 °F 78% 30.28 in 10.0 mi West 5.8 mph - N/A   Clear
4:36 AM -0.4 °F -12.0 °F -2.2 °F 92% 30.28 in 10.0 mi WNW 5.8 mph - N/A   Partly Cloudy
4:56 AM -0.4 °F -8.3 °F -7.6 °F 72% 30.27 in 10.0 mi West 3.5 mph - N/A   Mostly Cloudy
5:16 AM 1.4 °F -6.2 °F 1.4 °F 100% 30.27 in 10.0 mi West 3.5 mph - N/A   Overcast
5:36 AM 1.4 °F - -7.6 °F 66% 30.26 in 10.0 mi Calm Calm - N/A   Overcast
5:56 AM 1.4 °F - -0.4 °F 92% 30.25 in 10.0 mi Calm Calm - N/A   Mostly Cloudy
6:16 AM 1.4 °F -11.3 °F -2.2 °F 85% 30.25 in 10.0 mi West 6.9 mph - N/A   Mostly Cloudy
6:36 AM 1.4 °F -6.2 °F -4.0 °F 78% 30.25 in 10.0 mi West 3.5 mph - N/A   Overcast
6:56 AM 1.4 °F -6.2 °F 1.4 °F 100% 30.23 in 10.0 mi WSW 3.5 mph - N/A   Overcast
7:16 AM 1.4 °F -6.2 °F -5.8 °F 72% 30.23 in 10.0 mi West 3.5 mph - N/A   Overcast
7:36 AM 1.4 °F - -0.4 °F 92% 30.23 in 10.0 mi Calm Calm - N/A   Overcast
7:56 AM 1.4 °F - -5.8 °F 72% 30.22 in 10.0 mi Calm Calm - N/A   Overcast
8:16 AM 1.4 °F - -0.4 °F 92% 30.21 in 10.0 mi Calm Calm - N/A   Overcast
8:36 AM 1.4 °F - -2.2 °F 85% 30.21 in 2.0 mi Calm Calm - N/A   Overcast
8:56 AM 3.2 °F -7.8 °F 1.4 °F 92% 30.19 in 2.0 mi WSW 5.8 mph - N/A   Overcast
9:16 AM 6.8 °F - 1.4 °F 79% 30.18 in 1.2 mi Calm Calm - N/A   Overcast
9:36 AM 6.8 °F - 6.8 °F 100% 30.18 in 2.0 mi Calm Calm - N/A   Overcast
9:56 AM 6.8 °F -0.1 °F -2.2 °F 67% 30.17 in 3.0 mi SE 3.5 mph - N/A   Overcast
10:16 AM 6.8 °F - 5.0 °F 92% 30.17 in 1.8 mi Calm Calm - N/A   Overcast
10:36 AM 6.8 °F -0.1 °F -0.4 °F 72% 30.16 in 1.8 mi ESE 3.5 mph - N/A   Overcast
10:56 AM 6.8 °F -0.1 °F 6.8 °F 100% 30.15 in 1.2 mi SW 3.5 mph - N/A   Overcast
11:16 AM 10.4 °F 0.8 °F 6.8 °F 85% 30.14 in 1.5 mi SW 5.8 mph - N/A   Overcast
11:36 AM 12.2 °F 1.7 °F 8.6 °F 85% 30.13 in 1.2 mi WSW 6.9 mph - N/A   Overcast
11:56 AM 12.2 °F 1.7 °F 12.2 °F 100% 30.13 in 1.2 mi WSW 6.9 mph - N/A   Overcast
12:16 PM 14.0 °F 1.2 °F 8.6 °F 79% 30.12 in 1.2 mi WSW 10.4 mph 19.6 mph N/A   Overcast
12:36 PM 14.0 °F 2.9 °F 8.6 °F 79% 30.12 in 2.5 mi WSW 8.1 mph - N/A   Mostly Cloudy
12:56 PM 14.0 °F 2.9 °F 10.4 °F 86% 30.12 in 2.0 mi WSW 8.1 mph 17.3 mph N/A   Overcast
1:16 PM 14.0 °F -0.2 °F 8.6 °F 79% 30.11 in 1.8 mi WSW 12.7 mph 18.4 mph N/A   Overcast
1:36 PM 15.8 °F 5.1 °F 10.4 °F 79% 30.11 in 4.0 mi WSW 8.1 mph 16.1 mph N/A   Overcast
1:56 PM 15.8 °F 2.7 °F 8.6 °F 73% 30.11 in 3.0 mi WSW 11.5 mph 17.3 mph N/A   Mostly Cloudy
2:16 PM 15.8 °F 2.7 °F 10.4 °F 79% 30.11 in 1.8 mi WSW 11.5 mph 19.6 mph N/A   Overcast
2:36 PM 15.8 °F 4.2 °F 10.4 °F 79% 30.11 in 2.0 mi West 9.2 mph 18.4 mph N/A   Overcast
2:56 PM 15.8 °F 5.1 °F 10.4 °F 79% 30.10 in 1.5 mi WSW 8.1 mph 16.1 mph N/A   Overcast
3:16 PM 17.6 °F 7.3 °F 10.4 °F 73% 30.10 in 3.0 mi WSW 8.1 mph - N/A   Overcast
3:36 PM 17.6 °F 6.4 °F 10.4 °F 73% 30.09 in 2.5 mi WSW 9.2 mph 17.3 mph N/A   Overcast
3:56 PM 17.6 °F 7.3 °F 10.4 °F 73% 30.09 in 5.0 mi WSW 8.1 mph - N/A   Overcast
4:16 PM 17.6 °F 9.3 °F 12.2 °F 79% 30.08 in 10.0 mi WSW 5.8 mph 16.1 mph N/A   Overcast
4:36 PM 17.6 °F 9.3 °F 12.2 °F 79% 30.08 in 10.0 mi WSW 5.8 mph 18.4 mph N/A   Overcast
4:56 PM 19.4 °F 11.5 °F 10.4 °F 68% 30.08 in 7.0 mi WSW 5.8 mph - N/A   Overcast
5:16 PM 17.6 °F 6.4 °F 10.4 °F 73% 30.07 in 10.0 mi SW 9.2 mph - N/A   Overcast
5:36 PM 19.4 °F 9.5 °F 12.2 °F 74% 30.08 in 10.0 mi West 8.1 mph - N/A   Mostly Cloudy
5:56 PM 19.4 °F 8.6 °F 12.2 °F 74% 30.08 in 10.0 mi SW 9.2 mph 17.3 mph N/A   Mostly Cloudy
6:16 PM 19.4 °F 9.5 °F 14.0 °F 80% 30.08 in 9.0 mi WSW 8.1 mph - N/A   Overcast
6:36 PM 19.4 °F 7.9 °F 14.0 °F 80% 30.07 in 3.0 mi West 10.4 mph 16.1 mph N/A   Overcast
6:56 PM 19.4 °F 8.6 °F 14.0 °F 80% 30.07 in 3.0 mi WSW 9.2 mph 16.1 mph N/A   Overcast
7:16 PM 19.4 °F 10.4 °F 15.8 °F 86% 30.07 in 5.0 mi WSW 6.9 mph - N/A   Overcast
7:36 PM 19.4 °F 11.5 °F 15.8 °F 86% 30.07 in 10.0 mi WSW 5.8 mph - N/A   Overcast
7:56 PM 19.4 °F 11.5 °F 15.8 °F 86% 30.07 in 4.0 mi SW 5.8 mph - N/A   Overcast
8:16 PM 19.4 °F 10.4 °F 15.8 °F 86% 30.07 in 2.5 mi SW 6.9 mph - N/A   Overcast
8:36 PM 19.4 °F 9.5 °F 15.8 °F 86% 30.07 in 3.0 mi WSW 8.1 mph - N/A   Overcast
8:56 PM 19.4 °F 9.5 °F 17.6 °F 93% 30.07 in 2.5 mi WSW 8.1 mph - N/A   Overcast
9:16 PM 21.2 °F 12.6 °F 15.8 °F 80% 30.08 in 3.0 mi SW 6.9 mph - N/A   Overcast
9:36 PM 21.2 °F 14.9 °F 15.8 °F 80% 30.08 in 3.0 mi SW 4.6 mph - N/A   Overcast
9:56 PM 21.2 °F 12.6 °F 17.6 °F 86% 30.08 in 3.0 mi WSW 6.9 mph - N/A   Overcast
10:16 PM 21.2 °F 12.6 °F 17.6 °F 86% 30.08 in 5.0 mi SW 6.9 mph - N/A   Overcast
10:36 PM 21.2 °F 10.9 °F 15.8 °F 80% 30.08 in 8.0 mi WSW 9.2 mph - N/A   Overcast
10:56 PM 19.4 °F 7.9 °F 15.8 °F 86% 30.09 in 10.0 mi WSW 10.4 mph - N/A   Overcast
11:16 PM 19.4 °F 7.9 °F 15.8 °F 86% 30.09 in 10.0 mi West 10.4 mph 17.3 mph N/A   Overcast
11:36 PM 19.4 °F 11.5 °F 15.8 °F 86% 30.10 in 9.0 mi West 5.8 mph - N/A   Overcast
11:56 PM 19.4 °F 10.4 °F 15.8 °F 86% 30.10 in 9.0 mi WSW 6.9 mph - N/A   Overcast